Boonville, MO

5:08 AM CDT on April 25, 2017 (GMT -0500)
Viertel Memorial

Weather History for KVER - March, 2013

Change the Weather History Date:

Monday, March 11, 2013

  Actual Average Record
Temperature  
Mean Temperature 32 °F -  
Max Temperature 66 °F 52 °F 98 °F (2014)
Min Temperature 29 °F 32 °F 10 °F (1969)
Degree Days  
Heating Degree Days 33    
Moisture  
Dew Point 26 °F    
Average Humidity 79    
Maximum Humidity 92    
Minimum Humidity 62    
Precipitation  
Precipitation 0.00 in - - ()
Sea Level Pressure  
Sea Level Pressure 29.87 in    
Wind  
Wind Speed 11 mph (West)    
Max Wind Speed 17 mph    
Max Gust Speed 25 mph    
Visibility 10 miles    
Events      
Averages and records for this station are not official NWS values.
T = Trace of Precipitation, MM = Missing Value Source: NWS Daily Summary

Daily Weather History Graph

Daily Weather History Graph

Search for Another Location

Airport or City:

Trip Planner

Search our weather history database for the weather conditions in past years. The results will help you decide how hot, cold, wet, or windy it might be!

Date:

Astronomy

Mar. 11, 2013 Rise Set
Actual Time 7:27 AM CDT 7:14 PM CDT
Civil Twilight 7:01 AM CDT 7:40 PM CDT
Nautical Twilight 6:30 AM CDT 8:11 PM CDT
Astronomical Twilight 5:59 AM CDT 8:42 PM CDT
Moon 7:02 AM CDT (3/11) 7:26 PM CDT (3/11)
Length of Visible Light 12h 39m
Length of Day
11h 46m
Waning Crescent, 0% of the Moon is Illuminated
Mar 11
Waning Crescent
Mar 11
New
Mar 19
First Quarter
Mar 27
Full
Apr 2
Last Quarter

Hourly Weather History & Observations

Time (CDT) Temp. Windchill Dew Point Humidity Pressure Visibility Wind Dir Wind Speed Gust Speed Precip Events Conditions
12:15 AM 33.1 °F 24.9 °F 30.9 °F 92% 29.82 in 10.0 mi West 10.4 mph 17.3 mph N/A   Overcast
12:35 AM 33.1 °F 24.9 °F 30.4 °F 90% 29.81 in 10.0 mi West 10.4 mph 18.4 mph N/A   Overcast
12:55 AM 32.9 °F 23.7 °F 30.2 °F 90% 29.81 in 10.0 mi West 12.7 mph 19.6 mph N/A   Overcast
1:35 AM 32.5 °F 22.7 °F 30.2 °F 91% 29.80 in 10.0 mi West 13.8 mph 19.6 mph N/A   Overcast
2:15 AM 32.4 °F 25.3 °F 29.7 °F 90% 29.80 in 10.0 mi West 8.1 mph 17.3 mph N/A   Overcast
2:35 AM 32.2 °F 22.7 °F 29.5 °F 90% 29.80 in 10.0 mi West 12.7 mph 18.4 mph N/A   Overcast
2:55 AM 32.0 °F 24.8 °F 29.3 °F 90% 29.79 in 10.0 mi West 8.1 mph 20.7 mph N/A   Overcast
3:15 AM 32.0 °F 25.6 °F 29.1 °F 89% 29.78 in 10.0 mi West 6.9 mph 19.6 mph N/A   Overcast
3:35 AM 32.0 °F 21.6 °F 28.9 °F 88% 29.77 in 10.0 mi West 15.0 mph 19.6 mph N/A   Overcast
3:55 AM 32.0 °F 23.6 °F 28.8 °F 88% 29.78 in 10.0 mi West 10.4 mph 18.4 mph N/A   Overcast
4:15 AM 32.0 °F 22.1 °F 28.6 °F 87% 29.78 in 10.0 mi West 13.8 mph 18.4 mph N/A   Overcast
4:35 AM 32.0 °F 23.6 °F 28.4 °F 87% 29.78 in 10.0 mi West 10.4 mph 19.6 mph N/A   Overcast
4:55 AM 32.0 °F 24.2 °F 28.6 °F 87% 29.79 in 10.0 mi West 9.2 mph - N/A   Overcast
5:15 AM 31.8 °F 23.3 °F 28.0 °F 86% 29.80 in 10.0 mi West 10.4 mph 19.6 mph N/A   Overcast
5:35 AM 31.8 °F 23.3 °F 28.0 °F 86% 29.81 in 10.0 mi West 10.4 mph - N/A   Overcast
5:55 AM 31.6 °F 22.6 °F 28.0 °F 87% 29.81 in 10.0 mi West 11.5 mph 19.6 mph N/A   Overcast
6:15 AM 31.5 °F 21.4 °F 27.7 °F 86% 29.81 in 10.0 mi West 13.8 mph 19.6 mph N/A   Overcast
6:35 AM 31.5 °F 22.3 °F 27.5 °F 85% 29.81 in 10.0 mi West 11.5 mph 18.4 mph N/A   Overcast
6:55 AM 31.1 °F 20.9 °F 27.3 °F 86% 29.81 in 10.0 mi West 13.8 mph 19.6 mph N/A   Overcast
7:15 AM 30.9 °F 21.2 °F 27.1 °F 86% 29.81 in 10.0 mi West 12.7 mph 19.6 mph N/A   Overcast
7:35 AM 30.9 °F 21.2 °F 27.5 °F 87% 29.82 in 7.0 mi WNW 12.7 mph - N/A   Overcast
7:55 AM 30.7 °F 21.4 °F 27.3 °F 87% 29.83 in 10.0 mi West 11.5 mph 21.9 mph N/A   Overcast
8:15 AM 30.2 °F 20.2 °F 26.8 °F 87% 29.83 in 5.0 mi West 12.7 mph 19.6 mph N/A   Overcast
8:35 AM 30.0 °F 20.5 °F 26.6 °F 87% 29.83 in 10.0 mi West 11.5 mph 21.9 mph N/A   Overcast
8:55 AM 30.2 °F 20.8 °F 26.4 °F 86% 29.84 in 10.0 mi West 11.5 mph 20.7 mph N/A   Overcast
9:15 AM 30.2 °F 18.5 °F 26.2 °F 85% 29.85 in 10.0 mi West 17.3 mph 23.0 mph N/A   Overcast
9:35 AM 30.2 °F 20.8 °F 26.1 °F 85% 29.85 in 10.0 mi West 11.5 mph 19.6 mph N/A   Overcast
9:55 AM 30.2 °F 20.8 °F 26.2 °F 85% 29.86 in 10.0 mi WNW 11.5 mph 25.3 mph N/A   Overcast
10:15 AM 30.2 °F 20.2 °F 26.1 °F 85% 29.86 in 10.0 mi West 12.7 mph 20.7 mph N/A   Overcast
10:35 AM 30.0 °F 20.0 °F 25.9 °F 85% 29.87 in 10.0 mi West 12.7 mph 21.9 mph N/A   Overcast
10:55 AM 30.2 °F 21.9 °F 25.7 °F 83% 29.87 in 10.0 mi West 9.2 mph 18.4 mph N/A   Overcast
11:15 AM 30.2 °F 20.2 °F 25.9 °F 84% 29.87 in 10.0 mi West 12.7 mph 23.0 mph N/A   Overcast
11:35 AM 30.4 °F 21.0 °F 25.5 °F 82% 29.87 in 10.0 mi West 11.5 mph 21.9 mph N/A   Overcast
11:55 AM 30.9 °F 22.2 °F 25.7 °F 81% 29.87 in 10.0 mi West 10.4 mph - N/A   Overcast
12:15 PM 31.3 °F 20.7 °F 25.0 °F 77% 29.87 in 10.0 mi West 15.0 mph 20.7 mph N/A   Overcast
12:35 PM 31.5 °F 20.9 °F 24.6 °F 76% 29.87 in 10.0 mi West 15.0 mph 23.0 mph N/A   Overcast
12:55 PM 31.6 °F 23.1 °F 24.8 °F 76% 29.87 in 10.0 mi West 10.4 mph 23.0 mph N/A   Overcast
1:15 PM 32.0 °F 22.1 °F 24.8 °F 75% 29.88 in 10.0 mi West 13.8 mph 19.6 mph N/A   Overcast
1:35 PM 32.2 °F 21.8 °F 24.8 °F 74% 29.88 in 10.0 mi West 15.0 mph 25.3 mph N/A   Overcast
1:55 PM 32.7 °F 24.5 °F 25.3 °F 74% 29.87 in 10.0 mi WNW 10.4 mph 19.6 mph N/A   Overcast
2:15 PM 34.2 °F 24.8 °F 25.9 °F 72% 29.87 in 10.0 mi WNW 13.8 mph 19.6 mph N/A   Overcast
2:35 PM 34.3 °F 24.2 °F 25.7 °F 71% 29.87 in 7.0 mi West 16.1 mph 23.0 mph N/A   Overcast
2:55 PM 35.1 °F 28.6 °F 26.2 °F 70% 29.87 in 10.0 mi West 8.1 mph 21.9 mph N/A   Overcast
3:15 PM 35.1 °F 25.5 °F 26.4 °F 71% 29.87 in 10.0 mi WNW 15.0 mph 21.9 mph N/A   Overcast
3:35 PM 34.9 °F 26.6 °F 26.2 °F 71% 29.88 in 10.0 mi West 11.5 mph 20.7 mph N/A   Overcast
3:55 PM 34.9 °F 27.1 °F 26.2 °F 71% 29.88 in 10.0 mi West 10.4 mph 19.6 mph N/A   Overcast
4:15 PM 35.1 °F 25.5 °F 25.7 °F 69% 29.89 in 10.0 mi West 15.0 mph 20.7 mph N/A   Overcast
4:35 PM 34.9 °F 25.7 °F 24.4 °F 66% 29.89 in 10.0 mi West 13.8 mph 20.7 mph N/A   Overcast
4:55 PM 34.9 °F 25.3 °F 24.1 °F 65% 29.89 in 10.0 mi West 15.0 mph 19.6 mph N/A   Overcast
5:15 PM 34.7 °F 28.8 °F 24.3 °F 66% 29.90 in 10.0 mi West 6.9 mph - N/A   Overcast
5:35 PM 34.7 °F 28.1 °F 24.4 °F 66% 29.90 in 10.0 mi West 8.1 mph - N/A   Overcast
5:55 PM 35.1 °F 27.4 °F 23.7 °F 63% 29.90 in 10.0 mi West 10.4 mph 18.4 mph N/A   Overcast
6:15 PM 35.2 °F 27.6 °F 23.5 °F 62% 29.91 in 10.0 mi West 10.4 mph - N/A   Overcast
6:35 PM 34.9 °F 27.1 °F 23.4 °F 63% 29.92 in 10.0 mi WNW 10.4 mph - N/A   Mostly Cloudy
6:55 PM 34.3 °F 25.9 °F 23.4 °F 64% 29.93 in 10.0 mi WNW 11.5 mph - N/A   Scattered Clouds
7:15 PM 33.3 °F 26.4 °F 23.4 °F 67% 29.94 in 10.0 mi WNW 8.1 mph - N/A   Clear
7:35 PM 32.7 °F 26.4 °F 23.5 °F 69% 29.94 in 10.0 mi WNW 6.9 mph - N/A   Clear
7:55 PM 32.4 °F 29.1 °F 23.5 °F 70% 29.94 in 10.0 mi WNW 3.5 mph - N/A   Clear
8:15 PM 32.0 °F 28.7 °F 23.9 °F 72% 29.95 in 10.0 mi West 3.5 mph - N/A   Clear
8:35 PM 32.0 °F 27.5 °F 23.9 °F 72% 29.96 in 10.0 mi West 4.6 mph - N/A   Clear
8:55 PM 32.0 °F 26.4 °F 24.1 °F 73% 29.98 in 10.0 mi West 5.8 mph - N/A   Clear
9:15 PM 32.0 °F 24.8 °F 24.3 °F 73% 29.98 in 10.0 mi West 8.1 mph - N/A   Clear
9:35 PM 32.0 °F 25.6 °F 24.1 °F 73% 29.98 in 10.0 mi WNW 6.9 mph - N/A   Clear
9:55 PM 32.0 °F 27.5 °F 23.9 °F 72% 29.98 in 10.0 mi West 4.6 mph - N/A   Clear
10:15 PM 31.8 °F 28.5 °F 23.9 °F 73% 29.99 in 10.0 mi West 3.5 mph - N/A   Clear
10:35 PM 31.3 °F 27.9 °F 23.7 °F 74% 29.99 in 10.0 mi WSW 3.5 mph - N/A   Clear
10:55 PM 30.7 °F - 23.5 °F 75% 29.99 in 10.0 mi Calm Calm - N/A   Clear
11:35 PM 29.8 °F - 23.9 °F 79% 29.99 in 10.0 mi Calm Calm - N/A   Clear
11:55 PM 29.1 °F 25.4 °F 23.7 °F 80% 29.99 in 10.0 mi South 3.5 mph - N/A   Clear